Location: Ballingbuur
(53.0000°N, 5.7667°E)
Time: 07:04:08
(UTC+00:00)

ARGOS Delta rocket - Pass Details

Date: 29 November 2020
Orbit: 634 x 839 km, 96.5° (Epoch: 23 January)

Event Time Altitude Azimuth Distance (km) Brightness Sun altitude
Rises 03:56:10 0° 13° (NNE) 3,322 7.5 -30.4°
Reaches altitude 10° 03:58:36 10° 17° (NNE) 2,361 6.7 -30.0°
Maximum altitude 04:03:47 61° 98° (E) 857 4.4 -29.2°
Enters shadow 04:04:43 51° 145° (SE) 940 4.5 -29.1°
